ASA299 KEWR-KSEA

Flight info

Callsign ASA299
Flight time 5h 11m
Altitude 34000
Route GAYEL Q818 BUFFY Q818 DERLO HOCKE GRB KP06E HILGR MLP GLASR3
Aircraft B739/M-VGDW/C

Departure

Time 2026-04-22 10:16
Airport Newark Liberty International Airport (KEWR)

Arrival

Time 2026-04-22 15:28
Airport Seattle–Tacoma International Airport (KSEA)
Time Latitude Longitude Altitude Speed Heading
2026-04-22 09:45 40.68730 -74.17659 26 ft 0 kts 358°
2026-04-22 10:06 40.68729 -74.17659 26 ft 0 kts 358°
2026-04-22 10:06 40.68716 -74.17659 26 ft 3 kts 360°
2026-04-22 10:06 40.68696 -74.17659 26 ft 3 kts
2026-04-22 10:06 40.68676 -74.17663 26 ft 3 kts 13°
2026-04-22 10:07 40.68658 -74.17671 26 ft 3 kts 34°
2026-04-22 10:07 40.68647 -74.17685 26 ft 3 kts 82°
2026-04-22 10:07 40.68649 -74.17700 26 ft 2 kts 116°
2026-04-22 10:07 40.68654 -74.17715 26 ft 0 kts 116°
2026-04-22 10:09 40.68650 -74.17702 26 ft 5 kts 116°
2026-04-22 10:09 40.68628 -74.17643 26 ft 7 kts 116°
2026-04-22 10:09 40.68606 -74.17584 26 ft 7 kts 116°
2026-04-22 10:10 40.68584 -74.17525 26 ft 8 kts 115°
2026-04-22 10:10 40.68570 -74.17462 26 ft 7 kts 68°
2026-04-22 10:10 40.68614 -74.17420 26 ft 9 kts 26°
2026-04-22 10:10 40.68673 -74.17382 26 ft 10 kts 25°
2026-04-22 10:11 40.68734 -74.17344 26 ft 10 kts 25°
2026-04-22 10:11 40.68803 -74.17300 26 ft 13 kts 26°
2026-04-22 10:11 40.68895 -74.17241 26 ft 15 kts 26°
2026-04-22 10:11 40.68986 -74.17184 26 ft 14 kts 26°
2026-04-22 10:12 40.69071 -74.17130 26 ft 13 kts 26°
2026-04-22 10:12 40.69151 -74.17079 26 ft 13 kts 26°
2026-04-22 10:12 40.69228 -74.17030 26 ft 12 kts 26°
2026-04-22 10:12 40.69302 -74.16983 26 ft 12 kts 26°
2026-04-22 10:13 40.69373 -74.16938 26 ft 11 kts 26°
2026-04-22 10:13 40.69442 -74.16894 26 ft 11 kts 26°
2026-04-22 10:13 40.69518 -74.16846 26 ft 15 kts 26°
2026-04-22 10:13 40.69619 -74.16781 26 ft 17 kts 26°
2026-04-22 10:14 40.69720 -74.16718 26 ft 16 kts 25°
2026-04-22 10:14 40.69815 -74.16658 26 ft 15 kts 26°
2026-04-22 10:14 40.69903 -74.16601 26 ft 14 kts 26°
2026-04-22 10:14 40.69986 -74.16548 26 ft 13 kts 26°
2026-04-22 10:15 40.70061 -74.16489 26 ft 12 kts 63°
2026-04-22 10:15 40.70057 -74.16381 26 ft 12 kts 124°
2026-04-22 10:15 40.70012 -74.16372 26 ft 0 kts 206°
2026-04-22 10:15 40.70001 -74.16379 26 ft 7 kts 206°
2026-04-22 10:16 40.69798 -74.16507 26 ft 66 kts 206°
2026-04-22 10:16 40.69182 -74.16899 26 ft 128 kts 206°
2026-04-22 10:16 40.68213 -74.17512 80 ft 175 kts 205°
2026-04-22 10:16 40.67102 -74.18221 750 ft 179 kts 205°
2026-04-22 10:17 40.66146 -74.19297 1431 ft 189 kts 239°
2026-04-22 10:17 40.65892 -74.20968 2064 ft 198 kts 275°
2026-04-22 10:17 40.66266 -74.22756 2618 ft 207 kts 284°
2026-04-22 10:17 40.66756 -74.24606 3016 ft 225 kts 286°
2026-04-22 10:18 40.67367 -74.26630 3368 ft 247 kts 287°
2026-04-22 10:18 40.68016 -74.28769 4048 ft 255 kts 287°
2026-04-22 10:18 40.68783 -74.30895 4871 ft 262 kts 301°
2026-04-22 10:18 40.70173 -74.32461 5806 ft 266 kts 329°
2026-04-22 10:19 40.71966 -74.33104 6792 ft 271 kts 346°
2026-04-22 10:19 40.73858 -74.33418 7451 ft 279 kts 347°
2026-04-22 10:19 40.75805 -74.33735 8156 ft 281 kts 346°
2026-04-22 10:19 40.77740 -74.34058 8950 ft 281 kts 344°
2026-04-22 10:20 40.79574 -74.34786 9647 ft 273 kts 328°
2026-04-22 10:20 40.81141 -74.36119 10381 ft 265 kts 314°
2026-04-22 10:20 40.82564 -74.37664 11148 ft 265 kts 315°
2026-04-22 10:20 40.83969 -74.39187 12065 ft 256 kts 316°
2026-04-22 10:21 40.85356 -74.40687 12671 ft 263 kts 316°
2026-04-22 10:21 40.86793 -74.42246 13174 ft 270 kts 316°
2026-04-22 10:21 40.88249 -74.43831 13802 ft 271 kts 316°
2026-04-22 10:21 40.89709 -74.45418 14470 ft 273 kts 316°
2026-04-22 10:22 40.91206 -74.47050 14812 ft 286 kts 316°
2026-04-22 10:22 40.92762 -74.48745 15034 ft 302 kts 316°
2026-04-22 10:22 40.94444 -74.50583 15245 ft 317 kts 317°
2026-04-22 10:22 40.96184 -74.52485 15444 ft 333 kts 317°
2026-04-22 10:23 40.97981 -74.54451 15636 ft 347 kts 317°
2026-04-22 10:23 40.99870 -74.56518 15929 ft 357 kts 317°
2026-04-22 10:23 41.01799 -74.58631 16420 ft 361 kts 317°
2026-04-22 10:23 41.03739 -74.60758 16962 ft 363 kts 317°
2026-04-22 10:24 41.05693 -74.62901 17480 ft 366 kts 317°
2026-04-22 10:24 41.07659 -74.65056 18004 ft 368 kts 317°
2026-04-22 10:24 41.09657 -74.67215 18486 ft 371 kts 317°
2026-04-22 10:24 41.11660 -74.69389 18978 ft 373 kts 317°
2026-04-22 10:25 41.13668 -74.71575 19466 ft 375 kts 317°
2026-04-22 10:25 41.15687 -74.73781 19915 ft 377 kts 317°
2026-04-22 10:25 41.17718 -74.76004 20347 ft 380 kts 317°
2026-04-22 10:25 41.19757 -74.78240 20774 ft 382 kts 317°
2026-04-22 10:26 41.21810 -74.80495 21168 ft 384 kts 317°
2026-04-22 10:26 41.23875 -74.82767 21558 ft 386 kts 317°
2026-04-22 10:26 41.25947 -74.85048 21949 ft 388 kts 317°
2026-04-22 10:26 41.28032 -74.87347 22311 ft 390 kts 317°
2026-04-22 10:27 41.30126 -74.89657 22686 ft 392 kts 317°
2026-04-22 10:27 41.32226 -74.91976 23017 ft 394 kts 317°
2026-04-22 10:27 41.34339 -74.94312 23348 ft 396 kts 317°
2026-04-22 10:27 41.36463 -74.96662 23641 ft 399 kts 316°
2026-04-22 10:28 41.38596 -74.99025 23982 ft 400 kts 316°
2026-04-22 10:28 41.40739 -75.01400 24280 ft 402 kts 316°
2026-04-22 10:28 41.42890 -75.03786 24586 ft 403 kts 316°
2026-04-22 10:28 41.45050 -75.06185 24874 ft 405 kts 317°
2026-04-22 10:29 41.47214 -75.08590 25153 ft 406 kts 317°
2026-04-22 10:29 41.49386 -75.11007 25433 ft 407 kts 317°
2026-04-22 10:29 41.51564 -75.13432 25721 ft 408 kts 317°
2026-04-22 10:29 41.53751 -75.15870 25963 ft 410 kts 317°
2026-04-22 10:30 41.55943 -75.18316 26183 ft 412 kts 317°
2026-04-22 10:30 41.58145 -75.20774 26420 ft 413 kts 317°
2026-04-22 10:30 41.60355 -75.23244 26663 ft 414 kts 317°
2026-04-22 10:30 41.62568 -75.25719 26904 ft 415 kts 317°
2026-04-22 10:31 41.64787 -75.28203 27122 ft 417 kts 317°
2026-04-22 10:31 41.67011 -75.30696 27330 ft 418 kts 317°
2026-04-22 10:31 41.69239 -75.33195 27537 ft 419 kts 317°
2026-04-22 10:31 41.71490 -75.35692 27728 ft 420 kts 317°
2026-04-22 10:32 41.73733 -75.38200 27949 ft 421 kts 317°
2026-04-22 10:32 41.75971 -75.40716 28247 ft 419 kts 317°
2026-04-22 10:32 41.78199 -75.43229 28523 ft 418 kts 317°
2026-04-22 10:32 41.80413 -75.45731 28813 ft 416 kts 317°
2026-04-22 10:33 41.82626 -75.48236 29056 ft 416 kts 317°
2026-04-22 10:33 41.84834 -75.50737 29293 ft 415 kts 317°
2026-04-22 10:33 41.87007 -75.53201 29550 ft 414 kts 317°
2026-04-22 10:33 41.89225 -75.55715 29832 ft 412 kts 317°
2026-04-22 10:34 41.91361 -75.58205 30058 ft 411 kts 314°
2026-04-22 10:34 41.93297 -75.61005 30258 ft 409 kts 307°
2026-04-22 10:34 41.94962 -75.64091 30470 ft 407 kts 302°
2026-04-22 10:34 41.96492 -75.67283 30674 ft 407 kts 301°
2026-04-22 10:35 41.97930 -75.70550 30875 ft 406 kts 299°
2026-04-22 10:35 41.99315 -75.73846 31072 ft 405 kts 299°
2026-04-22 10:35 42.00704 -75.77143 31319 ft 403 kts 299°
2026-04-22 10:35 42.02091 -75.80413 31499 ft 403 kts 299°
2026-04-22 10:36 42.03466 -75.83703 31672 ft 403 kts 298°
2026-04-22 10:36 42.04828 -75.86996 31853 ft 402 kts 298°
2026-04-22 10:36 42.06184 -75.90287 32025 ft 402 kts 298°
2026-04-22 10:36 42.07531 -75.93568 32196 ft 401 kts 298°
2026-04-22 10:37 42.08883 -75.96865 32361 ft 401 kts 298°
2026-04-22 10:37 42.11573 -76.03437 32678 ft 400 kts 298°
2026-04-22 10:37 42.12915 -76.06717 32832 ft 400 kts 298°
2026-04-22 10:38 42.14256 -76.09993 32981 ft 399 kts 298°
2026-04-22 10:38 42.15592 -76.13275 33153 ft 398 kts 297°
2026-04-22 10:38 42.16800 -76.16627 33333 ft 397 kts 294°
2026-04-22 10:38 42.17901 -76.20034 33447 ft 397 kts 293°
2026-04-22 10:39 42.18967 -76.23475 33581 ft 397 kts 293°
2026-04-22 10:39 42.20036 -76.26902 33715 ft 397 kts 293°
2026-04-22 10:39 42.21113 -76.30331 33843 ft 396 kts 294°
2026-04-22 10:39 42.22192 -76.33749 33969 ft 396 kts 294°
2026-04-22 10:40 42.22909 -76.36017 34033 ft 396 kts 294°
2026-04-22 10:40 42.25084 -76.42891 34051 ft 400 kts 294°
2026-04-22 10:41 42.27267 -76.49788 34048 ft 399 kts 294°
2026-04-22 10:41 42.29446 -76.56668 34046 ft 398 kts 294°
2026-04-22 10:42 42.31671 -76.63518 34044 ft 398 kts 295°
2026-04-22 10:42 42.33886 -76.70386 34042 ft 399 kts 294°
2026-04-22 10:43 42.36057 -76.77278 34040 ft 399 kts 294°
2026-04-22 10:43 42.38216 -76.84184 34037 ft 399 kts 294°
2026-04-22 10:44 42.40370 -76.91094 34034 ft 399 kts 294°
2026-04-22 10:44 42.42523 -76.98002 34029 ft 399 kts 294°
2026-04-22 10:45 42.44675 -77.04919 34025 ft 399 kts 294°
2026-04-22 10:45 42.46818 -77.11837 34017 ft 399 kts 294°
2026-04-22 10:46 42.48958 -77.18773 34014 ft 399 kts 293°
2026-04-22 10:46 42.51092 -77.25714 34012 ft 399 kts 293°
2026-04-22 10:47 42.53206 -77.32600 34011 ft 399 kts 293°
2026-04-22 10:47 42.55395 -77.39522 34009 ft 400 kts 294°
2026-04-22 10:48 42.57543 -77.46466 34002 ft 400 kts 293°
2026-04-22 10:48 42.59667 -77.53433 34000 ft 400 kts 293°
2026-04-22 10:49 42.61784 -77.60412 34000 ft 400 kts 293°
2026-04-22 10:49 42.63900 -77.67399 34000 ft 400 kts 293°
2026-04-22 10:50 42.66011 -77.74373 33999 ft 400 kts 293°
2026-04-22 10:50 42.68010 -77.81427 33999 ft 400 kts 291°
2026-04-22 10:51 42.69959 -77.88498 33998 ft 400 kts 291°
2026-04-22 10:51 42.71910 -77.95575 33996 ft 400 kts 291°
2026-04-22 10:52 42.73864 -78.02663 33994 ft 400 kts 291°
2026-04-22 10:52 42.75818 -78.09767 33992 ft 401 kts 291°
2026-04-22 10:53 42.77770 -78.16877 33991 ft 401 kts 291°
2026-04-22 10:53 42.79764 -78.23976 33986 ft 401 kts 292°
2026-04-22 10:54 42.81733 -78.31071 33984 ft 401 kts 291°
2026-04-22 10:54 42.83724 -78.38177 33982 ft 401 kts 292°
2026-04-22 10:55 42.85660 -78.45248 33978 ft 401 kts 291°
2026-04-22 10:55 42.87591 -78.52381 33975 ft 401 kts 291°
2026-04-22 10:56 42.89515 -78.59519 33973 ft 401 kts 291°
2026-04-22 10:56 42.91441 -78.66673 33971 ft 402 kts 291°
2026-04-22 10:57 42.93250 -78.73888 33970 ft 403 kts 286°
2026-04-22 10:57 42.94344 -78.81413 33970 ft 405 kts 281°
2026-04-22 10:58 42.95250 -78.88988 33970 ft 405 kts 282°
2026-04-22 10:58 42.96171 -78.96568 33970 ft 405 kts 282°
2026-04-22 10:59 42.96785 -79.04224 33970 ft 406 kts 277°
2026-04-22 10:59 42.97124 -79.11926 33971 ft 407 kts 277°
2026-04-22 11:00 42.97499 -79.19626 33971 ft 406 kts 277°
2026-04-22 11:00 42.97894 -79.27338 33971 ft 407 kts 277°
2026-04-22 11:01 42.98294 -79.35054 33972 ft 407 kts 277°
2026-04-22 11:01 42.98693 -79.42715 33971 ft 407 kts 277°
2026-04-22 11:02 42.99152 -79.50431 33972 ft 407 kts 277°
2026-04-22 11:02 42.99590 -79.58136 33971 ft 407 kts 277°
2026-04-22 11:03 43.00008 -79.65855 33972 ft 407 kts 277°
2026-04-22 11:03 43.00414 -79.73570 33971 ft 407 kts 277°
2026-04-22 11:04 43.00812 -79.81287 33970 ft 407 kts 277°
2026-04-22 11:04 43.01205 -79.89007 33970 ft 407 kts 277°
2026-04-22 11:05 43.01591 -79.96729 33970 ft 407 kts 277°
2026-04-22 11:05 43.01972 -80.04462 33971 ft 409 kts 277°
2026-04-22 11:06 43.02350 -80.12221 33972 ft 410 kts 277°
2026-04-22 11:06 43.02723 -80.19995 33972 ft 410 kts 277°
2026-04-22 11:07 43.03091 -80.27768 33973 ft 410 kts 277°
2026-04-22 11:07 43.03453 -80.35536 33974 ft 410 kts 277°
2026-04-22 11:08 43.03811 -80.43314 33978 ft 410 kts 277°
2026-04-22 11:08 43.04161 -80.51048 33980 ft 410 kts 277°
2026-04-22 11:09 43.04508 -80.58836 33981 ft 411 kts 277°
2026-04-22 11:09 43.04857 -80.66632 33983 ft 411 kts 277°
2026-04-22 11:10 43.05230 -80.74427 33984 ft 411 kts 277°
2026-04-22 11:10 43.05557 -80.82225 33986 ft 411 kts 277°
2026-04-22 11:11 43.05871 -80.90040 33988 ft 412 kts 277°
2026-04-22 11:11 43.06180 -80.97852 33989 ft 412 kts 277°
2026-04-22 11:12 43.06489 -81.05675 33989 ft 412 kts 277°
2026-04-22 11:12 43.07054 -81.13446 33990 ft 410 kts 282°
2026-04-22 11:13 43.08045 -81.21109 33990 ft 409 kts 284°
2026-04-22 11:13 43.09044 -81.28782 33990 ft 410 kts 283°
2026-04-22 11:14 43.09993 -81.36295 33990 ft 410 kts 283°
2026-04-22 11:14 43.10913 -81.43694 33990 ft 410 kts 283°
2026-04-22 11:15 43.11862 -81.51392 33991 ft 410 kts 283°
2026-04-22 11:15 43.12826 -81.59027 33991 ft 409 kts 284°
2026-04-22 11:16 43.13814 -81.66699 33993 ft 410 kts 283°
2026-04-22 11:16 43.14775 -81.74394 33994 ft 410 kts 283°
2026-04-22 11:17 43.15723 -81.82100 33996 ft 410 kts 283°
2026-04-22 11:17 43.16663 -81.89814 33997 ft 410 kts 283°
2026-04-22 11:18 43.17597 -81.97532 33998 ft 410 kts 283°
2026-04-22 11:18 43.18521 -82.05233 33999 ft 411 kts 283°
2026-04-22 11:19 43.19446 -82.12974 34000 ft 411 kts 283°
2026-04-22 11:19 43.20351 -82.20593 34000 ft 411 kts 283°
2026-04-22 11:20 43.21271 -82.28316 34000 ft 410 kts 284°
2026-04-22 11:20 43.22213 -82.36042 34005 ft 411 kts 284°
2026-04-22 11:21 43.23110 -82.43780 34009 ft 411 kts 283°
2026-04-22 11:21 43.23995 -82.51525 34010 ft 411 kts 283°
2026-04-22 11:22 43.24869 -82.59226 34011 ft 411 kts 283°
2026-04-22 11:22 43.25747 -82.66968 34015 ft 411 kts 283°
2026-04-22 11:23 43.27152 -82.74519 34024 ft 407 kts 292°
2026-04-22 11:23 43.29048 -82.81838 34026 ft 407 kts 293°
2026-04-22 11:24 43.30958 -82.89143 34026 ft 406 kts 293°
2026-04-22 11:24 43.32859 -82.96451 34027 ft 406 kts 293°
2026-04-22 11:25 43.34753 -83.03759 34025 ft 406 kts 293°
2026-04-22 11:25 43.36643 -83.11079 34025 ft 407 kts 293°
2026-04-22 11:26 43.38555 -83.18390 34024 ft 406 kts 294°
2026-04-22 11:26 43.40494 -83.25693 34023 ft 406 kts 294°
2026-04-22 11:27 43.42406 -83.33001 34022 ft 406 kts 293°
2026-04-22 11:27 43.44304 -83.40315 34020 ft 406 kts 293°
2026-04-22 11:28 43.46193 -83.47643 34020 ft 407 kts 293°
2026-04-22 11:28 43.48077 -83.54982 34020 ft 407 kts 293°
2026-04-22 11:29 43.49957 -83.62330 34018 ft 407 kts 293°
2026-04-22 11:29 43.51830 -83.69677 34016 ft 407 kts 293°
2026-04-22 11:30 43.53699 -83.77036 34014 ft 406 kts 293°
2026-04-22 11:30 43.55560 -83.84382 34013 ft 406 kts 293°
2026-04-22 11:31 43.57414 -83.91727 34015 ft 406 kts 293°
2026-04-22 11:31 43.58953 -83.97844 34017 ft 406 kts 293°
2026-04-22 11:32 43.60802 -84.05211 34019 ft 407 kts 293°
2026-04-22 11:32 43.62647 -84.12587 34020 ft 407 kts 293°
2026-04-22 11:33 43.64489 -84.19970 34020 ft 407 kts 293°
2026-04-22 11:33 43.66324 -84.27353 34020 ft 406 kts 293°
2026-04-22 11:34 43.68099 -84.34516 34020 ft 406 kts 293°
2026-04-22 11:34 43.69229 -84.39091 34022 ft 406 kts 293°
2026-04-22 11:35 43.71051 -84.46481 34022 ft 406 kts 293°
2026-04-22 11:35 43.72867 -84.53868 34029 ft 406 kts 293°
2026-04-22 11:36 43.74406 -84.60150 34032 ft 405 kts 293°
2026-04-22 11:36 43.76214 -84.67552 34033 ft 406 kts 293°
2026-04-22 11:37 43.78015 -84.74950 34033 ft 406 kts 293°
2026-04-22 11:37 43.79810 -84.82345 34034 ft 405 kts 293°
2026-04-22 11:38 43.81597 -84.89733 34035 ft 405 kts 293°
2026-04-22 11:38 43.84270 -85.00831 34037 ft 404 kts 293°
2026-04-22 11:39 43.86041 -85.08211 34038 ft 404 kts 293°
2026-04-22 11:39 43.87808 -85.15598 34039 ft 403 kts 293°
2026-04-22 11:40 43.89564 -85.22969 34040 ft 403 kts 293°
2026-04-22 11:40 43.91305 -85.30297 34040 ft 403 kts 293°
2026-04-22 11:41 43.93063 -85.37720 34042 ft 402 kts 293°
2026-04-22 11:41 43.94788 -85.45031 34042 ft 402 kts 293°
2026-04-22 11:42 43.96524 -85.52407 34042 ft 401 kts 293°
2026-04-22 11:42 43.98248 -85.59764 34041 ft 401 kts 293°
2026-04-22 11:43 43.99966 -85.67114 34041 ft 400 kts 293°
2026-04-22 11:43 44.01676 -85.74457 34040 ft 399 kts 293°
2026-04-22 11:44 44.03381 -85.81806 34041 ft 400 kts 293°
2026-04-22 11:44 44.05082 -85.89157 34040 ft 400 kts 293°
2026-04-22 11:45 44.06779 -85.96517 34039 ft 400 kts 293°
2026-04-22 11:45 44.08472 -86.03882 34038 ft 400 kts 293°
2026-04-22 11:46 44.10158 -86.11247 34037 ft 400 kts 293°
2026-04-22 11:46 44.11842 -86.18623 34036 ft 400 kts 293°
2026-04-22 11:47 44.13519 -86.25994 34037 ft 400 kts 293°
2026-04-22 11:47 44.15195 -86.33384 34037 ft 400 kts 293°
2026-04-22 11:48 44.16861 -86.40761 34037 ft 400 kts 293°
2026-04-22 11:48 44.18528 -86.48160 34038 ft 400 kts 292°
2026-04-22 11:49 44.20188 -86.55560 34038 ft 400 kts 292°
2026-04-22 11:49 44.21843 -86.62959 34039 ft 400 kts 292°
2026-04-22 11:50 44.23480 -86.70308 34040 ft 400 kts 292°
2026-04-22 11:50 44.25128 -86.77731 34042 ft 401 kts 292°
2026-04-22 11:51 44.26772 -86.85158 34045 ft 401 kts 292°
2026-04-22 11:51 44.28413 -86.92598 34052 ft 401 kts 292°
2026-04-22 11:52 44.30047 -87.00033 34055 ft 401 kts 292°
2026-04-22 11:52 44.31678 -87.07481 34057 ft 402 kts 292°
2026-04-22 11:53 44.33308 -87.14951 34059 ft 402 kts 292°
2026-04-22 11:53 44.34934 -87.22424 34062 ft 403 kts 292°
2026-04-22 11:54 44.36555 -87.29910 34063 ft 403 kts 292°
2026-04-22 11:54 44.38175 -87.37412 34063 ft 404 kts 291°
2026-04-22 11:55 44.39791 -87.44920 34066 ft 403 kts 291°
2026-04-22 11:55 44.41402 -87.52438 34068 ft 404 kts 291°
2026-04-22 11:56 44.43008 -87.59955 34068 ft 404 kts 291°
2026-04-22 11:56 44.44612 -87.67493 34066 ft 404 kts 291°
2026-04-22 11:57 44.46212 -87.75036 34066 ft 405 kts 291°
2026-04-22 11:57 44.47845 -87.82571 34067 ft 404 kts 291°
2026-04-22 11:58 44.49428 -87.90080 34071 ft 405 kts 291°
2026-04-22 11:58 44.51002 -87.97644 34072 ft 405 kts 291°
2026-04-22 11:59 44.52572 -88.05226 34072 ft 406 kts 291°
2026-04-22 11:59 44.54143 -88.12829 34071 ft 406 kts 291°
2026-04-22 12:00 44.55716 -88.20437 34071 ft 406 kts 291°
2026-04-22 12:00 44.57391 -88.27988 34072 ft 405 kts 292°
2026-04-22 12:01 44.59072 -88.35535 34073 ft 405 kts 291°
2026-04-22 12:01 44.60737 -88.43079 34078 ft 405 kts 291°
2026-04-22 12:02 44.62395 -88.50641 34086 ft 405 kts 291°
2026-04-22 12:02 44.64046 -88.58213 34091 ft 406 kts 291°
2026-04-22 12:03 44.65694 -88.65797 34094 ft 406 kts 291°
2026-04-22 12:03 44.67404 -88.73350 34096 ft 406 kts 292°
2026-04-22 12:04 44.69089 -88.80928 34096 ft 407 kts 291°
2026-04-22 12:04 44.70757 -88.88519 34094 ft 406 kts 291°
2026-04-22 12:05 44.72415 -88.96122 34095 ft 408 kts 291°
2026-04-22 12:05 44.74076 -89.03784 34097 ft 411 kts 290°
2026-04-22 12:06 44.75723 -89.11435 34092 ft 410 kts 290°
2026-04-22 12:06 44.77374 -89.19124 34085 ft 411 kts 290°
2026-04-22 12:07 44.79020 -89.26821 34082 ft 411 kts 290°
2026-04-22 12:07 44.80665 -89.34540 34081 ft 411 kts 290°
2026-04-22 12:08 44.82300 -89.42246 34078 ft 412 kts 289°
2026-04-22 12:08 44.83938 -89.49992 34077 ft 412 kts 289°
2026-04-22 12:09 44.85565 -89.57715 34076 ft 412 kts 289°
2026-04-22 12:09 44.87191 -89.65465 34077 ft 412 kts 289°
2026-04-22 12:10 44.88808 -89.73202 34077 ft 412 kts 289°
2026-04-22 12:10 44.90422 -89.80951 34074 ft 412 kts 289°
2026-04-22 12:11 44.92030 -89.88706 34073 ft 412 kts 289°
2026-04-22 12:11 44.93632 -89.96453 34069 ft 412 kts 289°
2026-04-22 12:12 44.95233 -90.04227 34065 ft 412 kts 289°
2026-04-22 12:12 44.96829 -90.12012 34064 ft 413 kts 289°
2026-04-22 12:13 44.98420 -90.19798 34062 ft 413 kts 289°
2026-04-22 12:13 44.99995 -90.27539 34061 ft 413 kts 288°
2026-04-22 12:14 45.01574 -90.35332 34060 ft 413 kts 288°
2026-04-22 12:14 45.03150 -90.43134 34060 ft 413 kts 288°
2026-04-22 12:15 45.04719 -90.50938 34061 ft 413 kts 288°
2026-04-22 12:15 45.06283 -90.58741 34062 ft 412 kts 288°
2026-04-22 12:16 45.07839 -90.66540 34063 ft 412 kts 288°
2026-04-22 12:16 45.09392 -90.74357 34064 ft 412 kts 288°
2026-04-22 12:17 45.10939 -90.82169 34066 ft 412 kts 288°
2026-04-22 12:17 45.12482 -90.89995 34067 ft 412 kts 288°
2026-04-22 12:18 45.14016 -90.97805 34068 ft 412 kts 288°
2026-04-22 12:18 45.15550 -91.05646 34070 ft 413 kts 288°
2026-04-22 12:19 45.17067 -91.13435 34070 ft 413 kts 288°
2026-04-22 12:19 45.18600 -91.21335 34069 ft 413 kts 288°
2026-04-22 12:20 45.20117 -91.29188 34069 ft 412 kts 287°
2026-04-22 12:20 45.21625 -91.37025 34069 ft 413 kts 287°
2026-04-22 12:21 45.23130 -91.44876 34070 ft 412 kts 287°
2026-04-22 12:21 45.24620 -91.52682 34069 ft 412 kts 287°
2026-04-22 12:22 45.26113 -91.60534 34069 ft 412 kts 287°
2026-04-22 12:22 45.27600 -91.68389 34070 ft 412 kts 287°
2026-04-22 12:23 45.28843 -91.74979 34070 ft 412 kts 287°
2026-04-22 12:23 45.30318 -91.82834 34067 ft 412 kts 287°
2026-04-22 12:24 45.31791 -91.90708 34067 ft 412 kts 287°
2026-04-22 12:24 45.33256 -91.98567 34065 ft 412 kts 287°
2026-04-22 12:25 45.34705 -92.06380 34059 ft 412 kts 287°
2026-04-22 12:25 45.36160 -92.14254 34057 ft 412 kts 287°
2026-04-22 12:26 45.37608 -92.22132 34055 ft 412 kts 286°
2026-04-22 12:26 45.39052 -92.30011 34051 ft 412 kts 286°
2026-04-22 12:27 45.40490 -92.37894 34049 ft 412 kts 286°
2026-04-22 12:27 45.41922 -92.45778 34046 ft 412 kts 286°
2026-04-22 12:28 45.43349 -92.53672 34053 ft 412 kts 286°
2026-04-22 12:28 45.44774 -92.61587 34050 ft 413 kts 286°
2026-04-22 12:29 45.46194 -92.69507 34049 ft 413 kts 286°
2026-04-22 12:29 45.47608 -92.77427 34045 ft 413 kts 286°
2026-04-22 12:30 45.49718 -92.89320 34036 ft 413 kts 286°
2026-04-22 12:31 45.51121 -92.97260 34028 ft 413 kts 286°
2026-04-22 12:31 45.52516 -93.05200 34020 ft 413 kts 286°
2026-04-22 12:32 45.53908 -93.13152 34015 ft 413 kts 286°
2026-04-22 12:32 45.55984 -93.25085 34010 ft 413 kts 285°
2026-04-22 12:33 45.57361 -93.33039 34010 ft 413 kts 285°
2026-04-22 12:33 45.58724 -93.40953 34008 ft 413 kts 285°
2026-04-22 12:34 45.60090 -93.48918 34001 ft 413 kts 285°
2026-04-22 12:34 45.61449 -93.56879 33995 ft 412 kts 285°
2026-04-22 12:35 45.62801 -93.64838 33992 ft 412 kts 285°
2026-04-22 12:35 45.64147 -93.72794 33993 ft 412 kts 285°
2026-04-22 12:36 45.65487 -93.80753 33992 ft 412 kts 285°
2026-04-22 12:36 45.66823 -93.88724 33989 ft 412 kts 285°
2026-04-22 12:37 45.68150 -93.96682 33986 ft 411 kts 285°
2026-04-22 12:37 45.69471 -94.04635 33985 ft 412 kts 285°
2026-04-22 12:38 45.70791 -94.12625 33983 ft 412 kts 285°
2026-04-22 12:38 45.72105 -94.20609 33979 ft 412 kts 285°
2026-04-22 12:39 45.74055 -94.32530 33978 ft 412 kts 285°
2026-04-22 12:40 45.75354 -94.40525 33975 ft 413 kts 285°
2026-04-22 12:40 45.76651 -94.48536 33971 ft 413 kts 285°
2026-04-22 12:41 45.77942 -94.56556 33968 ft 414 kts 284°
2026-04-22 12:41 45.79228 -94.64583 33964 ft 414 kts 284°
2026-04-22 12:42 45.80510 -94.72621 33960 ft 414 kts 284°
2026-04-22 12:42 45.81789 -94.80679 33958 ft 414 kts 284°
2026-04-22 12:43 45.83064 -94.88754 33958 ft 415 kts 284°
2026-04-22 12:43 45.84332 -94.96820 33956 ft 416 kts 284°
2026-04-22 12:44 45.85599 -95.04922 33954 ft 416 kts 284°
2026-04-22 12:44 45.86857 -95.13009 33951 ft 416 kts 283°
2026-04-22 12:45 45.88114 -95.21124 33952 ft 416 kts 283°
2026-04-22 12:45 45.89363 -95.29229 33950 ft 416 kts 283°
2026-04-22 12:46 45.90608 -95.37355 33949 ft 417 kts 283°
2026-04-22 12:46 45.91848 -95.45483 33948 ft 417 kts 283°
2026-04-22 12:47 45.93083 -95.53624 33943 ft 417 kts 283°
2026-04-22 12:47 45.94344 -95.61685 33936 ft 417 kts 283°
2026-04-22 12:48 45.95568 -95.69825 33926 ft 417 kts 283°
2026-04-22 12:48 45.96771 -95.77973 33915 ft 417 kts 282°
2026-04-22 12:49 45.97966 -95.86117 33906 ft 417 kts 282°
2026-04-22 12:49 45.99161 -95.94267 33901 ft 417 kts 282°
2026-04-22 12:50 46.00363 -96.02421 33900 ft 417 kts 283°
2026-04-22 12:50 46.01690 -96.10532 33898 ft 417 kts 284°
2026-04-22 12:51 46.03007 -96.18648 33894 ft 417 kts 283°
2026-04-22 12:51 46.04311 -96.26776 33886 ft 416 kts 283°
2026-04-22 12:52 46.05601 -96.34900 33880 ft 416 kts 283°
2026-04-22 12:52 46.06883 -96.43027 33875 ft 416 kts 283°
2026-04-22 12:53 46.08187 -96.51157 33869 ft 416 kts 284°
2026-04-22 12:53 46.09529 -96.59267 33862 ft 416 kts 283°
2026-04-22 12:54 46.10841 -96.67382 33857 ft 416 kts 283°
2026-04-22 12:54 46.12135 -96.75521 33856 ft 416 kts 283°
2026-04-22 12:55 46.13419 -96.83660 33855 ft 416 kts 282°
2026-04-22 12:55 46.14692 -96.91798 33854 ft 416 kts 282°
2026-04-22 12:56 46.15959 -96.99948 33853 ft 416 kts 282°
2026-04-22 12:56 46.17211 -97.08046 33841 ft 416 kts 282°
2026-04-22 12:57 46.18466 -97.16209 33833 ft 417 kts 282°
2026-04-22 12:57 46.19716 -97.24379 33830 ft 418 kts 281°
2026-04-22 12:58 46.20963 -97.32571 33828 ft 418 kts 281°
2026-04-22 12:58 46.22206 -97.40778 33830 ft 418 kts 281°
2026-04-22 12:59 46.23443 -97.48997 33832 ft 419 kts 281°
2026-04-22 12:59 46.24677 -97.57229 33831 ft 419 kts 281°
2026-04-22 13:00 46.25902 -97.65452 33831 ft 420 kts 281°
2026-04-22 13:00 46.27125 -97.73697 33830 ft 420 kts 280°
2026-04-22 13:01 46.28343 -97.81959 33828 ft 420 kts 280°
2026-04-22 13:01 46.29557 -97.90236 33826 ft 421 kts 280°
2026-04-22 13:02 46.30763 -97.98507 33825 ft 421 kts 280°
2026-04-22 13:02 46.31967 -98.06800 33822 ft 421 kts 280°
2026-04-22 13:03 46.33162 -98.15082 33819 ft 421 kts 280°
2026-04-22 13:03 46.34354 -98.23385 33819 ft 421 kts 280°
2026-04-22 13:04 46.35538 -98.31679 33818 ft 421 kts 280°
2026-04-22 13:04 46.36706 -98.39906 33817 ft 420 kts 280°
2026-04-22 13:05 46.37876 -98.48191 33818 ft 420 kts 280°
2026-04-22 13:05 46.39040 -98.56481 33806 ft 420 kts 279°
2026-04-22 13:06 46.40196 -98.64768 33799 ft 420 kts 279°
2026-04-22 13:06 46.41347 -98.73056 33793 ft 420 kts 279°
2026-04-22 13:07 46.42493 -98.81356 33791 ft 420 kts 279°
2026-04-22 13:07 46.43634 -98.89660 33790 ft 420 kts 279°
2026-04-22 13:08 46.44767 -98.97964 33788 ft 420 kts 279°
2026-04-22 13:08 46.45895 -99.06270 33787 ft 419 kts 279°
2026-04-22 13:09 46.47014 -99.14565 33786 ft 420 kts 279°
2026-04-22 13:09 46.48129 -99.22877 33784 ft 420 kts 279°
2026-04-22 13:10 46.49239 -99.31196 33783 ft 420 kts 279°
2026-04-22 13:10 46.50344 -99.39528 33781 ft 421 kts 278°
2026-04-22 13:11 46.51438 -99.47828 33772 ft 421 kts 278°
2026-04-22 13:11 46.52533 -99.56186 33768 ft 422 kts 278°
2026-04-22 13:12 46.53624 -99.64561 33764 ft 422 kts 278°
2026-04-22 13:12 46.54710 -99.72953 33760 ft 422 kts 278°
2026-04-22 13:13 46.55788 -99.81333 33758 ft 422 kts 278°
2026-04-22 13:13 46.56863 -99.89733 33757 ft 423 kts 278°
2026-04-22 13:14 46.57931 -99.98132 33754 ft 423 kts 278°
2026-04-22 13:14 46.58994 -100.06536 33752 ft 424 kts 278°
2026-04-22 13:15 46.59874 -100.13544 33750 ft 423 kts 278°
2026-04-22 13:15 46.60926 -100.21962 33748 ft 423 kts 278°
2026-04-22 13:16 46.61973 -100.30401 33743 ft 423 kts 277°
2026-04-22 13:16 46.63011 -100.38817 33740 ft 422 kts 277°
2026-04-22 13:17 46.64042 -100.47227 33738 ft 422 kts 277°
2026-04-22 13:17 46.65067 -100.55636 33735 ft 422 kts 277°
2026-04-22 13:18 46.66087 -100.64065 33733 ft 423 kts 277°
2026-04-22 13:18 46.67100 -100.72495 33731 ft 423 kts 277°
2026-04-22 13:19 46.68107 -100.80926 33730 ft 423 kts 277°
2026-04-22 13:19 46.69108 -100.89353 33730 ft 423 kts 277°
2026-04-22 13:20 46.70102 -100.97793 33730 ft 423 kts 277°
2026-04-22 13:20 46.71091 -101.06237 33731 ft 423 kts 277°
2026-04-22 13:21 46.72075 -101.14689 33731 ft 423 kts 277°
2026-04-22 13:21 46.73045 -101.23079 33726 ft 423 kts 277°
2026-04-22 13:22 46.74016 -101.31541 33722 ft 423 kts 277°
2026-04-22 13:22 46.74981 -101.40005 33718 ft 423 kts 276°
2026-04-22 13:23 46.75941 -101.48479 33713 ft 424 kts 276°
2026-04-22 13:23 46.76895 -101.56969 33708 ft 424 kts 276°
2026-04-22 13:24 46.77842 -101.65444 33706 ft 424 kts 276°
2026-04-22 13:24 46.78784 -101.73937 33702 ft 424 kts 276°
2026-04-22 13:25 46.79718 -101.82422 33701 ft 424 kts 276°
2026-04-22 13:25 46.80648 -101.90920 33700 ft 424 kts 276°
2026-04-22 13:26 46.81570 -101.99420 33700 ft 424 kts 276°
2026-04-22 13:26 46.82488 -102.07928 33700 ft 425 kts 275°
2026-04-22 13:27 46.83399 -102.16442 33699 ft 425 kts 275°
2026-04-22 13:27 46.84303 -102.24956 33697 ft 424 kts 275°
2026-04-22 13:28 46.85195 -102.33419 33693 ft 424 kts 275°
2026-04-22 13:28 46.86089 -102.41954 33689 ft 425 kts 275°
2026-04-22 13:29 46.86976 -102.50484 33684 ft 424 kts 275°
2026-04-22 13:29 46.87854 -102.59002 33679 ft 424 kts 275°
2026-04-22 13:30 46.88726 -102.67519 33675 ft 424 kts 275°
2026-04-22 13:30 46.89593 -102.76059 33673 ft 424 kts 275°
2026-04-22 13:31 46.90455 -102.84602 33672 ft 425 kts 275°
2026-04-22 13:31 46.91309 -102.93139 33672 ft 424 kts 275°
2026-04-22 13:32 46.92156 -103.01679 33674 ft 424 kts 274°
2026-04-22 13:32 46.92996 -103.10206 33675 ft 424 kts 274°
2026-04-22 13:33 46.93833 -103.18767 33673 ft 424 kts 274°
2026-04-22 13:33 46.94660 -103.27309 33670 ft 424 kts 274°
2026-04-22 13:34 46.95483 -103.35865 33663 ft 425 kts 274°
2026-04-22 13:34 46.96300 -103.44432 33658 ft 424 kts 274°
2026-04-22 13:35 46.97109 -103.52974 33654 ft 424 kts 274°
2026-04-22 13:35 46.97912 -103.61532 33644 ft 424 kts 274°
2026-04-22 13:36 46.98709 -103.70097 33637 ft 424 kts 274°
2026-04-22 13:36 46.99494 -103.78610 33632 ft 424 kts 274°
2026-04-22 13:37 47.00278 -103.87175 33631 ft 425 kts 274°
2026-04-22 13:37 47.01056 -103.95751 33631 ft 425 kts 274°
2026-04-22 13:38 47.01830 -104.04336 33630 ft 425 kts 273°
2026-04-22 13:38 47.02979 -104.17251 33627 ft 426 kts 273°
2026-04-22 13:39 47.03738 -104.25881 33622 ft 426 kts 273°
2026-04-22 13:39 47.04490 -104.34494 33615 ft 426 kts 273°
2026-04-22 13:40 47.05236 -104.43118 33607 ft 427 kts 272°
2026-04-22 13:40 47.05976 -104.51758 33600 ft 427 kts 272°
2026-04-22 13:41 47.06711 -104.60403 33595 ft 427 kts 272°
2026-04-22 13:41 47.07438 -104.69043 33592 ft 427 kts 272°
2026-04-22 13:42 47.08161 -104.77708 33590 ft 428 kts 272°
2026-04-22 13:42 47.08877 -104.86373 33590 ft 428 kts 272°
2026-04-22 13:43 47.09586 -104.95040 33590 ft 428 kts 272°
2026-04-22 13:43 47.10288 -105.03710 33590 ft 428 kts 272°
2026-04-22 13:44 47.10986 -105.12394 33590 ft 429 kts 272°
2026-04-22 13:44 47.11671 -105.21018 33588 ft 429 kts 272°
2026-04-22 13:45 47.12356 -105.29720 33587 ft 429 kts 271°
2026-04-22 13:45 47.13036 -105.38440 33585 ft 430 kts 271°
2026-04-22 13:46 47.13708 -105.47151 33584 ft 430 kts 271°
2026-04-22 13:46 47.14376 -105.55882 33582 ft 430 kts 271°
2026-04-22 13:47 47.15036 -105.64616 33573 ft 431 kts 271°
2026-04-22 13:47 47.15691 -105.73364 33564 ft 431 kts 271°
2026-04-22 13:48 47.16338 -105.82103 33560 ft 430 kts 271°
2026-04-22 13:48 47.16979 -105.90855 33555 ft 430 kts 271°
2026-04-22 13:49 47.17614 -105.99604 33544 ft 431 kts 271°
2026-04-22 13:49 47.18245 -106.08397 33539 ft 434 kts 270°
2026-04-22 13:50 47.18867 -106.17164 33537 ft 434 kts 270°
2026-04-22 13:50 47.19486 -106.25989 33535 ft 434 kts 270°
2026-04-22 13:51 47.20098 -106.34812 33533 ft 434 kts 270°
2026-04-22 13:51 47.20703 -106.43635 33530 ft 434 kts 270°
2026-04-22 13:52 47.21302 -106.52468 33528 ft 434 kts 270°
2026-04-22 13:52 47.21895 -106.61316 33526 ft 435 kts 270°
2026-04-22 13:53 47.22482 -106.70169 33521 ft 435 kts 270°
2026-04-22 13:53 47.23061 -106.79027 33521 ft 435 kts 270°
2026-04-22 13:54 47.23636 -106.87903 33520 ft 435 kts 269°
2026-04-22 13:54 47.24203 -106.96778 33520 ft 436 kts 269°
2026-04-22 13:55 47.24764 -107.05669 33520 ft 436 kts 269°
2026-04-22 13:55 47.25317 -107.14555 33520 ft 437 kts 269°
2026-04-22 13:56 47.25866 -107.23461 33521 ft 437 kts 269°
2026-04-22 13:56 47.26403 -107.32312 33521 ft 437 kts 269°
2026-04-22 13:57 47.26938 -107.41233 33522 ft 437 kts 269°
2026-04-22 13:57 47.27466 -107.50149 33523 ft 438 kts 268°
2026-04-22 13:58 47.27987 -107.59081 33522 ft 437 kts 268°
2026-04-22 13:58 47.28500 -107.68007 33525 ft 437 kts 268°
2026-04-22 13:59 47.29007 -107.76921 33525 ft 438 kts 268°
2026-04-22 13:59 47.29508 -107.85864 33524 ft 438 kts 268°
2026-04-22 14:00 47.30001 -107.94792 33524 ft 437 kts 268°
2026-04-22 14:00 47.30489 -108.03738 33526 ft 438 kts 268°
2026-04-22 14:01 47.30968 -108.12659 33526 ft 440 kts 268°
2026-04-22 14:01 47.31446 -108.21706 33525 ft 440 kts 268°
2026-04-22 14:02 47.31913 -108.30682 33524 ft 439 kts 268°
2026-04-22 14:02 47.32374 -108.39657 33524 ft 439 kts 268°
2026-04-22 14:03 47.32825 -108.48588 33524 ft 440 kts 267°
2026-04-22 14:03 47.33272 -108.57579 33526 ft 440 kts 267°
2026-04-22 14:04 47.33712 -108.66574 33535 ft 440 kts 267°
2026-04-22 14:04 47.34195 -108.75594 33535 ft 441 kts 267°
2026-04-22 14:05 47.34620 -108.84604 33537 ft 441 kts 267°
2026-04-22 14:06 47.35223 -108.98149 33535 ft 442 kts 267°
2026-04-22 14:06 47.35620 -109.07193 33535 ft 442 kts 267°
2026-04-22 14:07 47.36016 -109.16239 33535 ft 443 kts 267°
2026-04-22 14:07 47.36392 -109.25302 33534 ft 442 kts 266°
2026-04-22 14:08 47.36690 -109.32821 33535 ft 442 kts 266°
2026-04-22 14:08 47.37041 -109.41891 33536 ft 443 kts 266°
2026-04-22 14:09 47.37382 -109.50957 33537 ft 443 kts 266°
2026-04-22 14:09 47.37685 -109.59192 33530 ft 443 kts 266°
2026-04-22 14:10 47.38031 -109.68261 33521 ft 443 kts 267°
2026-04-22 14:10 47.38437 -109.77324 33517 ft 443 kts 267°
2026-04-22 14:11 47.38805 -109.86413 33509 ft 444 kts 266°
2026-04-22 14:11 47.39150 -109.95514 33506 ft 444 kts 266°
2026-04-22 14:12 47.39482 -110.04599 33508 ft 444 kts 266°
2026-04-22 14:12 47.39804 -110.13720 33507 ft 445 kts 266°
2026-04-22 14:13 47.40118 -110.22849 33504 ft 445 kts 266°
2026-04-22 14:13 47.40424 -110.31976 33502 ft 445 kts 266°
2026-04-22 14:14 47.40722 -110.41109 33500 ft 446 kts 266°
2026-04-22 14:14 47.41014 -110.50257 33497 ft 446 kts 266°
2026-04-22 14:15 47.41298 -110.59413 33497 ft 447 kts 266°
2026-04-22 14:15 47.41576 -110.68579 33494 ft 447 kts 266°
2026-04-22 14:16 47.41846 -110.77751 33494 ft 448 kts 266°
2026-04-22 14:16 47.42108 -110.86879 33493 ft 448 kts 265°
2026-04-22 14:17 47.42364 -110.96067 33492 ft 448 kts 265°
2026-04-22 14:17 47.42614 -111.05286 33491 ft 449 kts 265°
2026-04-22 14:18 47.42856 -111.14505 33491 ft 450 kts 265°
2026-04-22 14:18 47.43091 -111.23736 33496 ft 450 kts 265°
2026-04-22 14:19 47.43319 -111.32977 33507 ft 450 kts 265°
2026-04-22 14:19 47.43539 -111.42218 33517 ft 450 kts 265°
2026-04-22 14:20 47.43857 -111.56105 33521 ft 451 kts 265°
2026-04-22 14:20 47.44059 -111.65357 33523 ft 451 kts 265°
2026-04-22 14:21 47.44347 -111.79177 33527 ft 452 kts 265°
2026-04-22 14:22 47.44620 -111.93090 33531 ft 451 kts 265°
2026-04-22 14:23 47.44876 -112.06969 33535 ft 452 kts 265°
2026-04-22 14:23 47.45038 -112.16271 33538 ft 453 kts 265°
2026-04-22 14:24 47.45192 -112.25585 33540 ft 453 kts 265°
2026-04-22 14:24 47.45339 -112.34895 33543 ft 454 kts 264°
2026-04-22 14:25 47.45479 -112.44215 33551 ft 455 kts 264°
2026-04-22 14:25 47.45611 -112.53556 33558 ft 455 kts 264°
2026-04-22 14:26 47.45736 -112.62905 33568 ft 455 kts 264°
2026-04-22 14:26 47.45853 -112.72261 33573 ft 456 kts 264°
2026-04-22 14:27 47.45963 -112.81641 33574 ft 457 kts 264°
2026-04-22 14:27 47.46066 -112.91025 33578 ft 457 kts 264°
2026-04-22 14:28 47.46161 -113.00421 33587 ft 458 kts 264°
2026-04-22 14:28 47.46248 -113.09841 33592 ft 458 kts 264°
2026-04-22 14:29 47.46327 -113.19199 33592 ft 459 kts 264°
2026-04-22 14:29 47.46399 -113.28628 33593 ft 459 kts 264°
2026-04-22 14:30 47.46463 -113.38066 33594 ft 459 kts 264°
2026-04-22 14:30 47.46520 -113.47514 33594 ft 460 kts 264°
2026-04-22 14:31 47.46569 -113.56964 33594 ft 460 kts 264°
2026-04-22 14:31 47.46610 -113.66411 33594 ft 460 kts 264°
2026-04-22 14:32 47.46644 -113.75871 33593 ft 460 kts 264°
2026-04-22 14:32 47.46669 -113.85325 33593 ft 460 kts 264°
2026-04-22 14:33 47.46687 -113.94790 33592 ft 460 kts 264°
2026-04-22 14:33 47.46697 -114.04242 33591 ft 460 kts 264°
2026-04-22 14:34 47.46700 -114.13732 33592 ft 462 kts 264°
2026-04-22 14:34 47.46694 -114.23238 33595 ft 462 kts 264°
2026-04-22 14:35 47.46681 -114.32734 33599 ft 462 kts 264°
2026-04-22 14:35 47.46660 -114.42230 33606 ft 462 kts 264°
2026-04-22 14:36 47.46631 -114.51742 33614 ft 463 kts 264°
2026-04-22 14:36 47.46594 -114.61262 33622 ft 464 kts 264°
2026-04-22 14:37 47.46549 -114.70792 33628 ft 464 kts 264°
2026-04-22 14:37 47.46496 -114.80327 33630 ft 464 kts 264°
2026-04-22 14:38 47.46435 -114.89875 33630 ft 465 kts 264°
2026-04-22 14:38 47.46367 -114.99432 33630 ft 465 kts 264°
2026-04-22 14:39 47.46291 -115.08940 33635 ft 466 kts 264°
2026-04-22 14:39 47.46217 -115.18522 33643 ft 467 kts 265°
2026-04-22 14:40 47.46112 -115.32901 33663 ft 467 kts 264°
2026-04-22 14:40 47.45991 -115.42498 33679 ft 468 kts 264°
2026-04-22 14:41 47.45861 -115.52107 33695 ft 468 kts 264°
2026-04-22 14:41 47.45730 -115.61727 33706 ft 468 kts 264°
2026-04-22 14:42 47.45987 -115.71385 33710 ft 472 kts 270°
2026-04-22 14:42 47.46636 -115.81048 33709 ft 473 kts 271°
2026-04-22 14:43 47.47245 -115.90720 33707 ft 472 kts 271°
2026-04-22 14:43 47.47825 -116.00411 33708 ft 476 kts 271°
2026-04-22 14:44 47.48386 -116.10156 33707 ft 475 kts 271°
2026-04-22 14:44 47.48975 -116.19806 33708 ft 475 kts 272°
2026-04-22 14:45 47.49587 -116.29513 33705 ft 473 kts 271°
2026-04-22 14:45 47.50156 -116.39236 33708 ft 477 kts 271°
2026-04-22 14:46 47.50703 -116.49015 33709 ft 476 kts 271°
2026-04-22 14:46 47.51248 -116.58725 33709 ft 472 kts 271°
2026-04-22 14:47 47.51786 -116.68431 33712 ft 475 kts 271°
2026-04-22 14:47 47.52306 -116.78187 33710 ft 476 kts 271°
2026-04-22 14:48 47.52819 -116.87919 33711 ft 472 kts 271°
2026-04-22 14:48 47.53321 -116.97574 33712 ft 470 kts 271°
2026-04-22 14:49 47.53814 -117.07219 33712 ft 470 kts 271°
2026-04-22 14:49 47.54312 -117.16863 33712 ft 470 kts 272°
2026-04-22 14:50 47.54827 -117.26503 33712 ft 469 kts 271°
2026-04-22 14:50 47.55284 -117.36133 33711 ft 469 kts 271°
2026-04-22 14:51 47.55725 -117.45762 33710 ft 469 kts 271°
2026-04-22 14:51 47.56163 -117.55394 33710 ft 469 kts 271°
2026-04-22 14:52 47.56647 -117.65008 33700 ft 469 kts 274°
2026-04-22 14:52 47.57574 -117.74577 33692 ft 469 kts 276°
2026-04-22 14:53 47.58496 -117.84065 33691 ft 469 kts 276°
2026-04-22 14:53 47.59393 -117.93638 33692 ft 469 kts 276°
2026-04-22 14:54 47.60273 -118.03206 33694 ft 469 kts 276°
2026-04-22 14:54 47.61143 -118.12777 33696 ft 468 kts 276°
2026-04-22 14:55 47.62083 -118.22324 33698 ft 468 kts 276°
2026-04-22 14:55 47.62985 -118.31883 33697 ft 468 kts 276°
2026-04-22 14:56 47.63859 -118.41440 33698 ft 467 kts 276°
2026-04-22 14:56 47.64718 -118.50991 33699 ft 468 kts 276°
2026-04-22 14:57 47.65568 -118.60554 33700 ft 467 kts 276°
2026-04-22 14:57 47.66408 -118.70105 33700 ft 467 kts 276°
2026-04-22 14:58 47.67240 -118.79658 33701 ft 467 kts 276°
2026-04-22 14:58 47.68064 -118.89218 33701 ft 466 kts 276°
2026-04-22 14:59 47.68879 -118.98762 33701 ft 466 kts 276°
2026-04-22 14:59 47.69591 -119.06684 33701 ft 466 kts 276°
2026-04-22 15:00 47.70398 -119.16224 33702 ft 465 kts 275°
2026-04-22 15:00 47.71295 -119.27295 33698 ft 465 kts 275°
2026-04-22 15:01 47.71937 -119.35286 33697 ft 465 kts 275°
2026-04-22 15:01 47.72701 -119.44816 33696 ft 464 kts 275°
2026-04-22 15:02 47.73458 -119.54337 33698 ft 464 kts 275°
2026-04-22 15:02 47.74202 -119.63857 33706 ft 464 kts 275°
2026-04-22 15:03 47.75004 -119.73362 33710 ft 464 kts 275°
2026-04-22 15:03 47.75752 -119.82892 33285 ft 461 kts 274°
2026-04-22 15:04 47.76107 -119.87598 32787 ft 456 kts 274°
2026-04-22 15:04 47.76456 -119.92260 32255 ft 452 kts 274°
2026-04-22 15:04 47.76803 -119.96885 31730 ft 448 kts 274°
2026-04-22 15:04 47.77138 -120.01412 31217 ft 444 kts 274°
2026-04-22 15:05 47.77474 -120.05953 30710 ft 440 kts 274°
2026-04-22 15:05 47.77812 -120.10514 30209 ft 436 kts 274°
2026-04-22 15:05 47.78128 -120.14904 29745 ft 430 kts 275°
2026-04-22 15:05 47.78453 -120.19290 29256 ft 425 kts 275°
2026-04-22 15:06 47.78772 -120.23636 28780 ft 420 kts 275°
2026-04-22 15:06 47.79083 -120.27931 28294 ft 416 kts 275°
2026-04-22 15:06 47.79391 -120.32180 27809 ft 412 kts 276°
2026-04-22 15:06 47.79738 -120.36387 27328 ft 408 kts 276°
2026-04-22 15:07 47.80061 -120.40561 26848 ft 405 kts 276°
2026-04-22 15:07 47.80365 -120.44708 26370 ft 401 kts 276°
2026-04-22 15:07 47.80658 -120.48821 25895 ft 398 kts 276°
2026-04-22 15:07 47.80942 -120.52903 25424 ft 395 kts 276°
2026-04-22 15:08 47.81222 -120.56955 24964 ft 392 kts 276°
2026-04-22 15:08 47.81499 -120.60975 24506 ft 389 kts 276°
2026-04-22 15:08 47.81772 -120.64970 24047 ft 387 kts 276°
2026-04-22 15:08 47.82043 -120.68941 23590 ft 384 kts 276°
2026-04-22 15:09 47.82312 -120.72876 23136 ft 382 kts 276°
2026-04-22 15:09 47.82580 -120.76793 22683 ft 379 kts 277°
2026-04-22 15:09 47.82845 -120.80676 22234 ft 376 kts 277°
2026-04-22 15:09 47.83129 -120.84528 21788 ft 374 kts 277°
2026-04-22 15:10 47.83401 -120.88364 21342 ft 371 kts 277°
2026-04-22 15:10 47.83660 -120.92173 20899 ft 368 kts 277°
2026-04-22 15:10 47.83911 -120.95949 20457 ft 366 kts 278°
2026-04-22 15:10 47.84158 -120.99702 20018 ft 363 kts 278°
2026-04-22 15:11 47.84400 -121.03428 19578 ft 360 kts 278°
2026-04-22 15:11 47.84640 -121.07126 19140 ft 358 kts 278°
2026-04-22 15:11 47.84877 -121.10794 18710 ft 355 kts 279°
2026-04-22 15:11 47.85115 -121.14440 18276 ft 352 kts 279°
2026-04-22 15:12 47.85346 -121.18007 17849 ft 349 kts 279°
2026-04-22 15:12 47.85577 -121.21591 17416 ft 347 kts 279°
2026-04-22 15:12 47.85832 -121.25145 16985 ft 344 kts 280°
2026-04-22 15:12 47.86079 -121.28671 16555 ft 341 kts 279°
2026-04-22 15:13 47.86312 -121.32180 16124 ft 339 kts 279°
2026-04-22 15:13 47.86534 -121.35658 15708 ft 336 kts 279°
2026-04-22 15:13 47.86749 -121.39101 15293 ft 333 kts 279°
2026-04-22 15:13 47.86962 -121.42519 14871 ft 330 kts 279°
2026-04-22 15:14 47.87171 -121.45918 14447 ft 328 kts 279°
2026-04-22 15:14 47.87374 -121.49289 14048 ft 325 kts 279°
2026-04-22 15:14 47.87575 -121.52627 13632 ft 322 kts 279°
2026-04-22 15:14 47.87775 -121.55924 13215 ft 319 kts 279°
2026-04-22 15:15 47.87972 -121.59205 12793 ft 317 kts 279°
2026-04-22 15:15 47.88168 -121.62456 12365 ft 315 kts 278°
2026-04-22 15:15 47.88360 -121.65682 12098 ft 310 kts 278°
2026-04-22 15:15 47.88197 -121.68870 12001 ft 311 kts 258°
2026-04-22 15:16 47.87259 -121.71774 11884 ft 314 kts 239°
2026-04-22 15:16 47.85856 -121.74298 11510 ft 318 kts 229°
2026-04-22 15:16 47.84250 -121.76536 11211 ft 314 kts 224°
2026-04-22 15:16 47.82609 -121.78637 10923 ft 308 kts 225°
2026-04-22 15:17 47.81021 -121.80738 10644 ft 303 kts 226°
2026-04-22 15:17 47.79469 -121.82825 10373 ft 298 kts 226°
2026-04-22 15:17 47.77997 -121.84928 10100 ft 289 kts 235°
2026-04-22 15:17 47.77122 -121.87492 9849 ft 272 kts 259°
2026-04-22 15:18 47.76826 -121.90219 9602 ft 265 kts 267°
2026-04-22 15:18 47.76678 -121.92918 9358 ft 260 kts 270°
2026-04-22 15:18 47.76596 -121.95585 9123 ft 256 kts 271°
2026-04-22 15:18 47.76519 -121.98215 8891 ft 254 kts 271°
2026-04-22 15:19 47.76432 -122.00828 8663 ft 253 kts 270°
2026-04-22 15:19 47.76340 -122.03435 8439 ft 253 kts 270°
2026-04-22 15:19 47.76248 -122.06050 8212 ft 254 kts 270°
2026-04-22 15:19 47.76153 -122.08671 7982 ft 253 kts 269°
2026-04-22 15:20 47.76057 -122.11284 7755 ft 254 kts 269°
2026-04-22 15:20 47.75961 -122.13903 7529 ft 254 kts 269°
2026-04-22 15:20 47.75865 -122.16520 7301 ft 254 kts 269°
2026-04-22 15:20 47.75769 -122.19111 7074 ft 248 kts 269°
2026-04-22 15:21 47.75675 -122.21639 6854 ft 242 kts 269°
2026-04-22 15:21 47.75584 -122.24104 6638 ft 237 kts 268°
2026-04-22 15:21 47.75495 -122.26520 6427 ft 231 kts 268°
2026-04-22 15:21 47.75397 -122.28876 6193 ft 227 kts 264°
2026-04-22 15:22 47.74795 -122.31050 5787 ft 233 kts 229°
2026-04-22 15:22 47.73400 -122.32159 5592 ft 233 kts 191°
2026-04-22 15:22 47.71785 -122.32173 5337 ft 233 kts 180°
2026-04-22 15:22 47.70174 -122.31997 5043 ft 232 kts 176°
2026-04-22 15:23 47.68568 -122.31793 4718 ft 231 kts 178°
2026-04-22 15:23 47.66981 -122.31682 4417 ft 222 kts 180°
2026-04-22 15:23 47.65479 -122.31651 4119 ft 211 kts 181°
2026-04-22 15:23 47.64048 -122.31648 3841 ft 202 kts 182°
2026-04-22 15:24 47.62655 -122.31654 3578 ft 198 kts 182°
2026-04-22 15:24 47.61306 -122.31662 3324 ft 189 kts 182°
2026-04-22 15:24 47.60012 -122.31672 3070 ft 184 kts 182°
2026-04-22 15:24 47.58747 -122.31682 2830 ft 181 kts 182°
2026-04-22 15:25 47.57694 -122.31691 2626 ft 179 kts 182°
2026-04-22 15:25 47.56484 -122.31701 2401 ft 178 kts 182°
2026-04-22 15:25 47.55261 -122.31712 2161 ft 171 kts 182°
2026-04-22 15:25 47.54101 -122.31721 1957 ft 160 kts 182°
2026-04-22 15:26 47.52999 -122.31731 1737 ft 156 kts 181°
2026-04-22 15:26 47.51933 -122.31740 1527 ft 154 kts 181°
2026-04-22 15:26 47.50874 -122.31749 1327 ft 151 kts 181°
2026-04-22 15:26 47.49830 -122.31758 1130 ft 150 kts 180°
2026-04-22 15:27 47.48753 -122.31757 931 ft 158 kts 181°
2026-04-22 15:27 47.47674 -122.31769 726 ft 154 kts 182°
2026-04-22 15:27 47.46605 -122.31783 524 ft 151 kts 182°
2026-04-22 15:27 47.45627 -122.31792 442 ft 128 kts 182°
2026-04-22 15:28 47.44919 -122.31801 441 ft 75 kts 181°
2026-04-22 15:28 47.44619 -122.31757 441 ft 29 kts 160°
2026-04-22 15:28 47.44448 -122.31627 441 ft 25 kts 150°
2026-04-22 15:28 47.44307 -122.31510 441 ft 22 kts 147°
2026-04-22 15:29 47.44238 -122.31366 441 ft 17 kts 110°
2026-04-22 15:29 47.44203 -122.31208 441 ft 16 kts 113°
2026-04-22 15:29 47.44141 -122.31085 441 ft 15 kts 143°
2026-04-22 15:30 47.43979 -122.30949 441 ft 10 kts 151°
2026-04-22 15:30 47.43960 -122.30933 441 ft 0 kts 151°
2026-04-22 15:30 47.43958 -122.30931 441 ft 2 kts 147°
2026-04-22 15:31 47.43925 -122.30886 441 ft 11 kts 127°
2026-04-22 15:31 47.43898 -122.30759 441 ft 13 kts 90°
2026-04-22 15:31 47.43932 -122.30646 441 ft 13 kts 15°
2026-04-22 15:31 47.44019 -122.30637 441 ft 12 kts
2026-04-22 15:32 47.44102 -122.30636 441 ft 12 kts
2026-04-22 15:32 47.44182 -122.30636 441 ft 11 kts
2026-04-22 15:32 47.44259 -122.30635 441 ft 11 kts
2026-04-22 15:32 47.44333 -122.30633 441 ft 10 kts
2026-04-22 15:33 47.44403 -122.30632 441 ft 10 kts
2026-04-22 15:33 47.44472 -122.30632 441 ft 10 kts 360°
2026-04-22 15:33 47.44536 -122.30632 441 ft 9 kts
2026-04-22 15:33 47.44599 -122.30631 441 ft 9 kts
2026-04-22 15:34 47.44659 -122.30630 441 ft 8 kts
2026-04-22 15:34 47.44716 -122.30630 441 ft 8 kts
2026-04-22 15:34 47.44763 -122.30601 441 ft 8 kts 70°
2026-04-22 15:34 47.44766 -122.30525 441 ft 8 kts 90°
2026-04-22 15:35 47.44765 -122.30470 441 ft 8 kts 90°
2026-04-22 15:35 47.44755 -122.30371 441 ft 7 kts 127°
2026-04-22 15:35 47.44744 -122.30311 441 ft 7 kts 31°
2026-04-22 15:35 47.44776 -122.30277 441 ft 1 kts 39°
2026-04-22 15:36 47.44781 -122.30271 441 ft 0 kts 39°